Location: Aufkirchen
(47.9603°N, 11.3653°E)
Time: 00:18:39
(UTC+01:00)

Vanguard 1 Rocket - Visible Passes

Search period start: 26 November 2020 00:00
Search period end: 06 December 2020 00:00
Orbit: 656 x 4221 km, 34.3° (Epoch: 25 November)

Date Brightness Start Highest point End Pass type
(mag) Time Alt. Az. Time Alt. Az. Time Alt. Az.
26 Nov 11.2 00:44:15 23° ESE 00:44:15 23° ESE 00:51:08 10° E visible
26 Nov 10.4 03:01:32 45° S 03:04:18 47° SSE 03:18:39 10° E visible
26 Nov 10.0 05:18:50 20° WSW 05:32:26 47° SSW 05:43:06 10° ESE visible
27 Nov 10.7 01:54:21 40° SE 01:54:21 40° SE 02:07:01 10° E visible
27 Nov 10.2 04:11:38 37° SW 04:19:52 51° S 04:32:37 10° ESE visible
27 Nov 10.1 06:30:42 10° W 06:46:39 37° SSW 06:55:44 10° SE visible
28 Nov 11.1 00:47:06 26° ESE 00:47:06 26° ESE 00:54:33 10° E visible
28 Nov 10.3 03:04:23 49° S 03:06:40 50° S 03:21:38 10° ESE visible
28 Nov 10.1 05:21:40 22° WSW 05:34:53 46° SSW 05:45:55 10° SE visible
28 Nov 11.6 23:39:50 12° E 23:39:50 12° E 23:40:47 10° E visible
29 Nov 10.6 01:57:07 43° SE 01:57:07 43° SE 02:10:02 10° E visible
29 Nov 10.2 04:14:24 39° SW 04:22:17 52° S 04:35:31 10° ESE visible
29 Nov 10.2 06:33:02 10° W 06:48:56 34° SSW 06:58:16 10° SSE visible
30 Nov 11.1 00:49:49 28° ESE 00:49:49 28° ESE 00:57:41 10° E visible
30 Nov 10.3 03:07:06 52° S 03:09:00 53° S 03:24:32 10° ESE visible
30 Nov 10.2 05:24:22 23° WSW 05:37:13 45° SSW 05:48:38 10° SE visible
30 Nov 11.5 23:42:30 13° E 23:42:30 13° E 23:44:17 10° E visible
01 Dec 10.6 01:59:47 46° SE 01:59:47 46° SE 02:12:57 10° E visible
01 Dec 10.2 04:17:03 40° SW 04:24:39 52° SSW 04:38:19 10° ESE visible
01 Dec 10.4 06:35:29 10° W 06:51:04 31° SW 07:00:36 10° SSE visible
01 Dec11.822:35:11E22:35:11E21:52:22Svisible
02 Dec 11.0 00:52:27 30° ESE 00:52:27 30° ESE 01:00:39 10° E visible
02 Dec 10.3 03:09:43 54° SSW 03:11:18 55° S 03:27:22 10° ESE visible
02 Dec 10.3 05:27:00 23° WSW 05:39:27 42° SSW 05:51:13 10° SE visible
02 Dec 11.5 23:45:08 15° E 23:45:08 15° E 23:47:25 10° E visible
03 Dec 10.5 02:02:24 48° SE 02:02:24 48° SE 02:15:47 10° E visible
03 Dec 10.3 04:19:40 40° WSW 04:26:55 50° SSW 04:41:01 10° SE visible
03 Dec 10.5 06:38:04 10° W 06:53:03 27° SW 07:02:40 10° S visible
03 Dec11.622:37:47E22:37:47E21:55:07Svisible
04 Dec 11.0 00:55:04 31° ESE 00:55:04 31° ESE 01:03:30 10° E visible
04 Dec 10.3 03:12:20 55° SSW 03:13:33 55° S 03:30:07 10° ESE visible
04 Dec 10.4 05:29:36 23° W 05:41:32 39° SSW 05:53:38 10° SSE visible
04 Dec 11.5 23:47:44 15° E 23:47:44 15° E 23:50:21 10° E visible
05 Dec 10.6 02:05:00 49° SE 02:05:00 49° SE 02:18:33 10° ESE visible
05 Dec 10.3 04:22:17 40° WSW 04:29:05 48° SSW 04:43:36 10° SE visible
05 Dec 10.7 06:40:54 10° W 06:54:53 23° SW 07:04:23 10° S visible
05 Dec 11.5 21:57:12 10° SSW 22:40:25 - E 21:58:01 12° SSW visible
